#timestamp,LO_Frequency,Hit,StdDev 
1607716815.2,286047001.5,N
1607716835.9,286047004.1,N
1607716855.7,286047003.6,N
1607716875.6,286047003.6,N
1607716895.4,286047005.7,Y
1607716915.2,286047003.0,P
1607716935.1,286047003.3,P
1607716936.0,286047003.3,P
1607716955.8,286047004.1,Y
1607716975.6,286046999.9,P
1607716995.5,286047002.0,N
1607717015.3,286047004.4,P
1607717035.1,286047003.6,N
1607717055.9,286047003.6,N
1607717075.7,286047003.8,N
1607717095.5,286047003.2,N
1607717115.4,286047004.1,Y
1607717135.2,286047000.2,P
1607717155.0,286047001.1,N
1607717155.9,286047001.1,N
1607717175.8,286047002.1,N
1607717195.6,286047002.7,N
1607717215.4,286047001.8,N
1607717235.3,286047000.3,N
1607717255.1,286046999.8,N
1607717275.8,286047002.0,N
1607717295.7,286047004.0,Y
1607717315.5,286047001.7,P
1607717335.3,286047001.8,P
1607717355.2,286047003.8,P
1607717375.0,286047003.6,Y
1607717375.9,286047003.6,P
1607717395.7,286047002.5,P
1607717415.6,286047004.1,P
1607717435.4,286047002.5,Y
1607717455.2,286046998.7,P
1607717475.1,286046999.0,N
1607717476.0,286046999.0,N
1607717495.8,286047001.1,N
1607717515.6,286047000.5,N
1607717535.5,286047000.9,N
1607717555.3,286047000.8,N
1607717575.1,286046999.9,N
1607717595.9,286047001.9,N
1607717615.7,286047002.8,N
1607717635.5,286046999.8,N
1607717655.4,286047001.7,N
1607717675.2,286047005.6,Y
1607717695.0,286047003.9,P
1607717695.9,286047003.9,N
1607717715.8,286047002.3,N
1607717735.6,286047003.6,N
1607717755.5,286047003.8,Y
1607717775.3,286046998.1,P
1607717795.1,286047000.9,N
1607717815.9,286046999.7,N
1607717835.7,286047000.2,N
1607717855.5,286047002.7,N
1607717875.3,286047002.3,N
1607717895.2,286047001.3,N
1607717915.0,286047004.2,N
1607717915.9,286047004.2,N
1607717935.8,286047003.2,N
1607717955.6,286047002.9,N
1607717975.4,286047007.5,Y
1607717995.3,286047003.7,P
1607718015.1,286047003.4,P
1607718016.0,286047003.4,P
1607718035.8,286047003.0,Y
1607718055.7,286047000.2,P
1607718075.5,286047000.3,N
1607718095.3,286047011.9,P
1607718115.2,286047002.7,N
1607718135.9,286047002.3,N
1607718155.7,286047002.1,N
1607718175.6,286047001.4,N
1607718195.4,286047002.3,N
1607718215.2,286047002.1,N
1607718235.1,286047002.4,N
1607718236.0,286047002.4,N
1607718255.8,286047001.5,N
1607718275.6,286047001.6,N
1607718295.5,286047002.4,N
1607718315.3,286047001.9,N
1607718335.1,286047003.2,N
1607718355.9,286047004.4,N
1607718375.7,286047004.4,N
1607718395.5,286047001.9,N
1607718415.4,286047004.1,N
1607718435.2,286047001.7,N
1607718455.0,286047003.7,N
1607718455.9,286047003.7,N
1607718475.8,286047005.9,N
1607718495.6,286047003.0,N
1607718515.4,286047003.3,N
1607718535.3,286047003.5,N
1607718555.1,286047004.1,N
1607718556.0,286047004.1,N
1607718575.8,286047006.0,N
1607718595.7,286047003.2,N
1607718615.5,286047004.4,N
1607718635.3,286047001.7,N
1607718655.2,286047002.2,N
1607718675.9,286047001.4,N
1607718695.7,286047001.7,N
1607718715.6,286047001.3,N
1607718735.4,286047001.5,N
1607718755.2,286047004.0,Y
1607718775.1,286047000.1,P
1607718776.0,286047000.1,N
1607718795.8,286046999.8,N
1607718815.6,286047001.0,N
1607718835.5,286046998.4,N
1607718855.3,286047000.4,N
1607718875.1,286047000.6,N
1607718895.9,286047000.8,N
1607718915.7,286046998.5,N
1607718935.5,286046998.1,N
1607718955.4,286046998.7,N
1607718975.2,286046999.3,N
1607718995.0,286046998.8,N
1607718995.9,286046998.8,N
1607719015.8,286046998.2,N
1607719035.6,286047011.9,Y
1607719055.4,286046998.8,P
1607719075.3,286046998.8,N
1607719095.1,286046998.1,P
1607719096.0,286046998.1,Y
1607719115.8,286047000.6,P
1607719135.7,286047001.0,N
1607719155.5,286046998.7,N
1607719175.3,286046999.2,N
1607719195.2,286046998.9,N
1607719215.9,286046998.8,N
1607719235.7,286046996.9,Y
1607719255.6,286046999.4,P
1607719275.4,286046999.0,P
1607719295.2,286046998.6,P
1607719315.1,286046999.0,Y
1607719316.0,286046999.0,P
1607719335.8,286046998.6,P
1607719355.6,286046996.5,P
1607719375.5,286046998.4,N
1607719395.3,286047001.2,N
1607719415.1,286046998.3,N
1607719435.9,286046997.1,N
1607719455.7,286046996.5,N
1607719475.5,286046996.5,N
1607719495.4,286046996.5,N
1607719515.2,286046994.9,Y
1607719535.0,286046999.3,P
1607719535.9,286046999.3,N
1607719555.8,286047000.8,N
1607719575.6,286046998.7,N
1607719595.4,286046999.3,N
1607719615.3,286046999.2,N
1607719635.1,286046999.5,N
1607719636.0,286046999.5,N
1607719655.8,286046997.8,Y
1607719675.7,286046999.2,P
1607719695.5,286046996.8,P
1607719715.3,286046999.2,N
1607719735.2,286046996.8,Y
1607719755.9,286047000.8,P
1607719775.7,286047000.5,N
1607719795.6,286047000.5,N
1607719815.4,286047000.0,N
1607719835.2,286047000.9,N
1607719855.1,286047001.2,N
1607719856.0,286047001.2,N
1607719875.8,286047000.4,N
1607719895.6,286047001.0,N
1607719915.5,286046998.7,N
1607719935.3,286046998.9,N
1607719955.1,286046998.7,N
1607719975.9,286046996.5,Y
1607719995.7,286046996.8,P
1607720015.5,286046997.4,N
1607720035.4,286046999.5,N
1607720055.2,286046997.2,N
1607720075.0,286046997.6,N
1607720075.9,286046997.6,N
1607720095.8,286046997.3,N
1607720115.6,286046998.0,N
1607720135.4,286046995.0,Y
1607720155.3,286046999.2,P
1607720175.1,286046997.0,P
1607720195.8,286046996.6,P
1607720215.7,286046997.1,N
1607720235.5,286046999.6,N
1607720255.3,286046998.3,N
1607720275.2,286046998.2,N
1607720295.0,286046998.8,N
1607720295.9,286046998.8,N
1607720315.7,286046999.3,N
1607720335.6,286046999.5,N
1607720355.4,286046997.2,N
1607720375.2,286046996.8,Y
1607720395.1,286046998.5,P
1607720396.0,286046998.5,P
